Wetterdaten: Samstag, 04.04.2009
Datum Zeit Temp. I. Temp. A. Boden 5 cm Feuchte A. Sonne Luftdruck Regen Wind
04.04.2009 00:00 21,6 C 11,8 C 7,9 C 68 % 0 % 1012 hPa 0,0 l/m 0,0 km/h (0 Bft)
04.04.2009 00:03 21,6 C 11,8 C 8,1 C 68 % 0 % 1012 hPa 0,0 l/m 0,0 km/h (0 Bft)
04.04.2009 00:06 21,6 C 11,8 C 8,5 C 67 % 0 % 1012 hPa 0,0 l/m 0,0 km/h (0 Bft)
04.04.2009 00:09 21,6 C 11,8 C 8,5 C 67 % 0 % 1012 hPa 0,0 l/m 0,0 km/h (0 Bft)
04.04.2009 00:12 21,6 C 11,8 C 8,6 C 68 % 0 % 1012 hPa 0,0 l/m 0,0 km/h (0 Bft)
04.04.2009 00:15 21,6 C 11,8 C 8,8 C 68 % 0 % 1012 hPa 0,0 l/m 0,0 km/h (0 Bft)
04.04.2009 00:18 21,6 C 11,7 C 8,6 C 68 % 0 % 1012 hPa 0,0 l/m 0,0 km/h (0 Bft)
04.04.2009 00:21 21,6 C 11,7 C 8,1 C 68 % 0 % 1012 hPa 0,0 l/m 0,0 km/h (0 Bft)
04.04.2009 00:24 21,6 C 11,7 C 7,9 C 68 % 0 % 1012 hPa 0,0 l/m 0,0 km/h (0 Bft)
04.04.2009 00:27 21,6 C 11,7 C 7,7 C 68 % 0 % 1012 hPa 0,0 l/m 0,0 km/h (0 Bft)
04.04.2009 00:30 21,6 C 11,7 C 8,7 C 68 % 0 % 1012 hPa 0,0 l/m 0,0 km/h (0 Bft)
04.04.2009 00:33 21,6 C 11,6 C 8,3 C 68 % 0 % 1012 hPa 0,0 l/m 0,0 km/h (0 Bft)
04.04.2009 00:36 21,6 C 11,6 C 8,3 C 68 % 0 % 1012 hPa 0,0 l/m 0,0 km/h (0 Bft)
04.04.2009 00:39 21,6 C 11,6 C 8,1 C 68 % 0 % 1012 hPa 0,0 l/m 0,0 km/h (0 Bft)
04.04.2009 00:42 21,6 C 11,6 C 8,0 C 68 % 0 % 1012 hPa 0,0 l/m 0,0 km/h (0 Bft)
04.04.2009 00:45 21,6 C 11,6 C 7,6 C 68 % 0 % 1012 hPa 0,0 l/m 0,0 km/h (0 Bft)
04.04.2009 00:48 21,6 C 11,6 C 7,6 C 68 % 0 % 1012 hPa 0,0 l/m 0,0 km/h (0 Bft)
04.04.2009 00:51 21,6 C 11,4 C 7,5 C 68 % 0 % 1012 hPa 0,0 l/m 0,0 km/h (0 Bft)
04.04.2009 00:54 21,6 C 11,4 C 7,6 C 68 % 0 % 1012 hPa 0,0 l/m 0,0 km/h (0 Bft)
04.04.2009 00:57 21,6 C 11,3 C 7,9 C 68 % 0 % 1012 hPa 0,0 l/m 0,0 km/h (0 Bft)
04.04.2009 01:00 21,6 C 11,3 C 7,6 C 69 % 0 % 1012 hPa 0,0 l/m 0,0 km/h (0 Bft)
04.04.2009 01:03 21,6 C 11,2 C 7,3 C 69 % 0 % 1012 hPa 0,0 l/m 0,0 km/h (0 Bft)
04.04.2009 01:06 21,6 C 11,2 C 7,4 C 70 % 0 % 1012 hPa 0,0 l/m 0,0 km/h (0 Bft)
04.04.2009 01:09 21,6 C 11,1 C 7,3 C 70 % 0 % 1012 hPa 0,0 l/m 0,0 km/h (0 Bft)
04.04.2009 01:12 21,6 C 11,1 C 7,2 C 70 % 0 % 1012 hPa 0,0 l/m 0,0 km/h (0 Bft)
04.04.2009 01:15 21,6 C 10,9 C 7,3 C 71 % 0 % 1012 hPa 0,0 l/m 0,0 km/h (0 Bft)
04.04.2009 01:18 21,6 C 10,8 C 7,2 C 70 % 0 % 1012 hPa 0,0 l/m 0,0 km/h (0 Bft)
04.04.2009 01:21 21,6 C 10,8 C 7,1 C 71 % 0 % 1012 hPa 0,0 l/m 0,0 km/h (0 Bft)
04.04.2009 01:24 21,6 C 10,8 C 7,2 C 71 % 0 % 1012 hPa 0,0 l/m 0,0 km/h (0 Bft)
04.04.2009 01:27 21,6 C 10,8 C 7,4 C 71 % 0 % 1012 hPa 0,0 l/m 0,0 km/h (0 Bft)
04.04.2009 01:30 21,6 C 10,7 C 7,3 C 71 % 0 % 1012 hPa 0,0 l/m 0,0 km/h (0 Bft)
04.04.2009 01:33 21,6 C 10,7 C 7,1 C 71 % 0 % 1012 hPa 0,0 l/m 0,0 km/h (0 Bft)
04.04.2009 01:36 21,6 C 10,7 C 7,1 C 72 % 0 % 1012 hPa 0,0 l/m 0,0 km/h (0 Bft)
04.04.2009 01:39 21,6 C 10,7 C 7,8 C 72 % 0 % 1012 hPa 0,0 l/m 0,0 km/h (0 Bft)
04.04.2009 01:42 21,6 C 10,7 C 7,7 C 71 % 0 % 1012 hPa 0,0 l/m 0,0 km/h (0 Bft)
04.04.2009 01:45 21,6 C 10,6 C 7,0 C 71 % 0 % 1012 hPa 0,0 l/m 0,0 km/h (0 Bft)
04.04.2009 01:48 21,6 C 10,5 C 7,0 C 71 % 0 % 1012 hPa 0,0 l/m 0,0 km/h (0 Bft)
04.04.2009 01:51 21,6 C 10,5 C 6,8 C 71 % 0 % 1012 hPa 0,0 l/m 0,0 km/h (0 Bft)
04.04.2009 01:54 21,6 C 10,4 C 6,7 C 71 % 0 % 1012 hPa 0,0 l/m 0,0 km/h (0 Bft)
04.04.2009 01:57 21,6 C 10,4 C 6,5 C 71 % 0 % 1012 hPa 0,0 l/m 0,0 km/h (0 Bft)
04.04.2009 02:00 21,6 C 10,3 C 6,4 C 71 % 0 % 1012 hPa 0,0 l/m 0,0 km/h (0 Bft)
04.04.2009 02:03 21,6 C 10,2 C 6,4 C 71 % 0 % 1012 hPa 0,0 l/m 0,0 km/h (0 Bft)
04.04.2009 02:06 21,6 C 10,2 C 6,5 C 72 % 0 % 1012 hPa 0,0 l/m 0,0 km/h (0 Bft)
04.04.2009 02:09 21,6 C 10,1 C 6,4 C 72 % 0 % 1012 hPa 0,0 l/m 0,0 km/h (0 Bft)
04.04.2009 02:12 21,6 C 10,1 C 6,3 C 72 % 0 % 1012 hPa 0,0 l/m 0,0 km/h (0 Bft)
04.04.2009 02:15 21,6 C 10,1 C 6,2 C 72 % 0 % 1012 hPa 0,0 l/m 0,0 km/h (0 Bft)
04.04.2009 02:18 21,6 C 10,1 C 6,2 C 72 % 0 % 1012 hPa 0,0 l/m 0,0 km/h (0 Bft)
04.04.2009 02:21 21,6 C 10,1 C 6,4 C 72 % 0 % 1012 hPa 0,0 l/m 0,0 km/h (0 Bft)
04.04.2009 02:24 21,6 C 10,1 C 7,2 C 72 % 0 % 1012 hPa 0,0 l/m 0,0 km/h (0 Bft)
04.04.2009 02:27 21,6 C 10,1 C 7,6 C 72 % 0 % 1012 hPa 0,0 l/m 0,0 km/h (0 Bft)
04.04.2009 02:30 21,6 C 10,1 C 7,4 C 72 % 0 % 1012 hPa 0,0 l/m 0,0 km/h (0 Bft)
04.04.2009 02:33 21,6 C 10,0 C 7,0 C 72 % 0 % 1012 hPa 0,0 l/m 0,0 km/h (0 Bft)
04.04.2009 02:36 21,6 C 10,0 C 7,0 C 72 % 0 % 1012 hPa 0,0 l/m 0,0 km/h (0 Bft)
04.04.2009 02:39 21,6 C 10,0 C 7,5 C 72 % 0 % 1012 hPa 0,0 l/m 0,0 km/h (0 Bft)
04.04.2009 02:42 21,6 C 9,9 C 7,1 C 72 % 0 % 1012 hPa 0,0 l/m 0,0 km/h (0 Bft)
04.04.2009 02:45 21,6 C 9,9 C 7,1 C 72 % 0 % 1012 hPa 0,0 l/m 0,0 km/h (0 Bft)
04.04.2009 02:48 21,6 C 9,8 C 7,4 C 73 % 0 % 1012 hPa 0,0 l/m 0,0 km/h (0 Bft)
04.04.2009 02:51 21,6 C 9,7 C 7,3 C 73 % 0 % 1012 hPa 0,0 l/m 0,0 km/h (0 Bft)
04.04.2009 02:55 21,6 C 9,6 C 7,3 C 74 % 0 % 1012 hPa 0,0 l/m 0,0 km/h (0 Bft)
04.04.2009 02:58 21,6 C 9,6 C 7,1 C 74 % 0 % 1012 hPa 0,0 l/m 0,0 km/h (0 Bft)
04.04.2009 03:01 21,6 C 9,6 C 6,9 C 74 % 0 % 1012 hPa 0,0 l/m 0,0 km/h (0 Bft)
04.04.2009 03:04 21,6 C 9,2 C 6,9 C 74 % 0 % 1012 hPa 0,0 l/m 0,0 km/h (0 Bft)
04.04.2009 03:07 21,6 C 9,2 C 6,9 C 74 % 0 % 1012 hPa 0,0 l/m 0,0 km/h (0 Bft)
04.04.2009 03:10 21,6 C 9,0 C 6,9 C 75 % 0 % 1012 hPa 0,0 l/m 0,0 km/h (0 Bft)
04.04.2009 03:13 21,6 C 8,9 C 6,9 C 76 % 0 % 1012 hPa 0,0 l/m 0,0 km/h (0 Bft)
04.04.2009 03:16 21,6 C 8,9 C 6,9 C 76 % 0 % 1012 hPa 0,0 l/m 0,0 km/h (0 Bft)
04.04.2009 03:19 21,6 C 8,9 C 6,9 C 76 % 0 % 1012 hPa 0,0 l/m 0,0 km/h (0 Bft)
04.04.2009 03:22 21,6 C 8,8 C 6,9 C 75 % 0 % 1012 hPa 0,0 l/m 0,0 km/h (0 Bft)
04.04.2009 03:25 21,6 C 8,8 C 6,9 C 75 % 0 % 1012 hPa 0,0 l/m 0,0 km/h (0 Bft)
04.04.2009 03:28 21,6 C 8,8 C 6,9 C 75 % 0 % 1012 hPa 0,0 l/m 0,0 km/h (0 Bft)
04.04.2009 03:31 21,6 C 8,8 C 6,9 C 75 % 0 % 1012 hPa 0,0 l/m 0,0 km/h (0 Bft)
04.04.2009 03:34 21,6 C 8,8 C 6,9 C 75 % 0 % 1012 hPa 0,0 l/m 0,0 km/h (0 Bft)
04.04.2009 03:37 21,6 C 8,8 C 6,9 C 75 % 0 % 1012 hPa 0,0 l/m 0,0 km/h (0 Bft)
04.04.2009 03:40 21,6 C 8,8 C 6,9 C 76 % 0 % 1012 hPa 0,0 l/m 0,0 km/h (0 Bft)
04.04.2009 03:43 21,6 C 8,6 C 6,9 C 76 % 0 % 1012 hPa 0,0 l/m 0,0 km/h (0 Bft)
04.04.2009 03:46 21,6 C 8,5 C 6,9 C 76 % 0 % 1012 hPa 0,0 l/m 0,0 km/h (0 Bft)
04.04.2009 03:49 21,6 C 8,5 C 6,9 C 76 % 0 % 1012 hPa 0,0 l/m 0,0 km/h (0 Bft)
04.04.2009 03:52 21,6 C 8,5 C 5,6 C 76 % 0 % 1012 hPa 0,0 l/m 0,0 km/h (0 Bft)
04.04.2009 03:55 21,6 C 8,5 C 6,0 C 76 % 0 % 1012 hPa 0,0 l/m 0,0 km/h (0 Bft)
04.04.2009 03:58 21,7 C 8,5 C 6,2 C 76 % 0 % 1012 hPa 0,0 l/m 0,0 km/h (0 Bft)
04.04.2009 04:01 21,6 C 8,4 C 5,8 C 76 % 0 % 1012 hPa 0,0 l/m 0,0 km/h (0 Bft)
04.04.2009 04:04 21,6 C 8,3 C 6,2 C 76 % 0 % 1012 hPa 0,0 l/m 0,0 km/h (0 Bft)
04.04.2009 04:07 21,6 C 8,3 C 6,1 C 77 % 0 % 1012 hPa 0,0 l/m 0,0 km/h (0 Bft)
04.04.2009 04:10 21,7 C 8,3 C 5,9 C 77 % 0 % 1012 hPa 0,0 l/m 0,0 km/h (0 Bft)
04.04.2009 04:13 21,6 C 8,1 C 5,4 C 77 % 0 % 1012 hPa 0,0 l/m 0,0 km/h (0 Bft)
04.04.2009 04:16 21,6 C 8,1 C 5,5 C 77 % 0 % 1012 hPa 0,0 l/m 0,0 km/h (0 Bft)
04.04.2009 04:19 21,6 C 8,1 C 5,2 C 78 % 0 % 1012 hPa 0,0 l/m 0,0 km/h (0 Bft)
04.04.2009 04:22 21,6 C 8,0 C 5,1 C 78 % 0 % 1012 hPa 0,0 l/m 0,0 km/h (0 Bft)
04.04.2009 04:25 21,6 C 8,0 C 5,2 C 78 % 0 % 1012 hPa 0,0 l/m 0,0 km/h (0 Bft)
04.04.2009 04:28 21,6 C 8,0 C 5,1 C 78 % 0 % 1012 hPa 0,0 l/m 0,0 km/h (0 Bft)
04.04.2009 04:31 21,6 C 8,0 C 5,0 C 78 % 0 % 1012 hPa 0,0 l/m 0,0 km/h (0 Bft)
04.04.2009 04:34 21,6 C 8,0 C 5,0 C 78 % 0 % 1012 hPa 0,0 l/m 0,0 km/h (0 Bft)
04.04.2009 04:37 21,6 C 8,0 C 5,1 C 79 % 0 % 1012 hPa 0,0 l/m 0,0 km/h (0 Bft)
04.04.2009 04:40 21,6 C 8,0 C 5,0 C 79 % 0 % 1012 hPa 0,0 l/m 0,0 km/h (0 Bft)
04.04.2009 04:43 21,6 C 8,0 C 5,2 C 79 % 0 % 1013 hPa 0,0 l/m 0,0 km/h (0 Bft)
04.04.2009 04:46 21,7 C 8,0 C 5,2 C 79 % 0 % 1013 hPa 0,0 l/m 0,0 km/h (0 Bft)
04.04.2009 04:49 21,6 C 8,0 C 5,2 C 79 % 0 % 1013 hPa 0,0 l/m 0,0 km/h (0 Bft)
04.04.2009 04:52 21,6 C 8,0 C 5,2 C 79 % 0 % 1013 hPa 0,0 l/m 0,0 km/h (0 Bft)
04.04.2009 04:55 21,6 C 7,9 C 5,1 C 79 % 0 % 1013 hPa 0,0 l/m 0,0 km/h (0 Bft)
04.04.2009 04:58 21,6 C 7,9 C 5,5 C 79 % 0 % 1013 hPa 0,0 l/m 0,0 km/h (0 Bft)
04.04.2009 05:01 21,6 C 7,8 C 5,2 C 79 % 0 % 1013 hPa 0,0 l/m 0,0 km/h (0 Bft)
04.04.2009 05:04 21,7 C 7,8 C 4,9 C 81 % 0 % 1013 hPa 0,0 l/m 0,0 km/h (0 Bft)
04.04.2009 05:07 21,7 C 7,7 C 5,0 C 80 % 0 % 1013 hPa 0,0 l/m 0,0 km/h (0 Bft)
04.04.2009 05:10 21,7 C 7,7 C 5,0 C 80 % 0 % 1013 hPa 0,0 l/m 0,0 km/h (0 Bft)
04.04.2009 05:13 21,7 C 7,7 C 4,7 C 80 % 0 % 1013 hPa 0,0 l/m 0,0 km/h (0 Bft)
04.04.2009 05:16 21,7 C 7,7 C 4,9 C 80 % 0 % 1013 hPa 0,0 l/m 0,0 km/h (0 Bft)
04.04.2009 05:19 21,7 C 7,7 C 5,2 C 80 % 0 % 1013 hPa 0,0 l/m 0,0 km/h (0 Bft)
04.04.2009 05:22 21,7 C 7,6 C 4,5 C 80 % 0 % 1013 hPa 0,0 l/m 0,0 km/h (0 Bft)
04.04.2009 05:25 21,7 C 7,6 C 4,5 C 80 % 0 % 1013 hPa 0,0 l/m 0,0 km/h (0 Bft)
04.04.2009 05:28 21,7 C 7,6 C 5,6 C 80 % 0 % 1013 hPa 0,0 l/m 0,0 km/h (0 Bft)
04.04.2009 05:31 21,7 C 7,6 C 5,5 C 80 % 0 % 1013 hPa 0,0 l/m 0,0 km/h (0 Bft)
04.04.2009 05:34 21,7 C 7,6 C 5,6 C 80 % 0 % 1013 hPa 0,0 l/m 0,0 km/h (0 Bft)
04.04.2009 05:37 21,7 C 7,6 C 5,4 C 80 % 0 % 1013 hPa 0,0 l/m 0,0 km/h (0 Bft)
04.04.2009 05:40 21,7 C 7,5 C 5,1 C 81 % 0 % 1013 hPa 0,0 l/m 0,0 km/h (0 Bft)
04.04.2009 05:43 21,7 C 7,5 C 4,9 C 81 % 0 % 1013 hPa 0,0 l/m 0,0 km/h (0 Bft)
04.04.2009 05:46 21,7 C 7,4 C 5,1 C 80 % 0 % 1013 hPa 0,0 l/m 0,0 km/h (0 Bft)
04.04.2009 05:49 21,7 C 7,4 C 5,2 C 81 % 0 % 1013 hPa 0,0 l/m 0,0 km/h (0 Bft)
04.04.2009 05:52 21,7 C 7,4 C 5,2 C 81 % 0 % 1013 hPa 0,0 l/m 0,0 km/h (0 Bft)
04.04.2009 05:55 21,7 C 7,2 C 5,2 C 81 % 0 % 1013 hPa 0,0 l/m 0,0 km/h (0 Bft)
04.04.2009 05:58 21,7 C 7,2 C 5,1 C 81 % 0 % 1013 hPa 0,0 l/m 0,0 km/h (0 Bft)
04.04.2009 06:01 21,8 C 7,1 C 4,9 C 81 % 0 % 1013 hPa 0,0 l/m 0,0 km/h (0 Bft)
04.04.2009 06:04 21,8 C 7,1 C 4,7 C 81 % 0 % 1013 hPa 0,0 l/m 0,0 km/h (0 Bft)
04.04.2009 06:07 21,7 C 7,0 C 4,5 C 81 % 0 % 1013 hPa 0,0 l/m 0,0 km/h (0 Bft)
04.04.2009 06:10 21,7 C 6,9 C 4,8 C 81 % 0 % 1013 hPa 0,0 l/m 0,0 km/h (0 Bft)
04.04.2009 06:13 21,7 C 6,9 C 5,0 C 81 % 0 % 1013 hPa 0,0 l/m 0,0 km/h (0 Bft)
04.04.2009 06:16 21,7 C 6,9 C 4,7 C 81 % 0 % 1013 hPa 0,0 l/m 0,0 km/h (0 Bft)
04.04.2009 06:19 21,7 C 6,9 C 4,4 C 81 % 0 % 1013 hPa 0,0 l/m 0,0 km/h (0 Bft)
04.04.2009 06:22 21,7 C 6,8 C 4,4 C 82 % 0 % 1013 hPa 0,0 l/m 0,0 km/h (0 Bft)
04.04.2009 06:25 21,8 C 6,8 C 4,4 C 82 % 0 % 1013 hPa 0,0 l/m 0,0 km/h (0 Bft)
04.04.2009 06:28 21,8 C 6,8 C 4,0 C 81 % 0 % 1013 hPa 0,0 l/m 0,0 km/h (0 Bft)
04.04.2009 06:31 21,7 C 6,8 C 4,2 C 81 % 0 % 1013 hPa 0,0 l/m 0,0 km/h (0 Bft)
04.04.2009 06:34 21,7 C 6,8 C 4,6 C 81 % 0 % 1013 hPa 0,0 l/m 0,0 km/h (0 Bft)
04.04.2009 06:37 21,8 C 6,8 C 4,4 C 82 % 0 % 1013 hPa 0,0 l/m 0,0 km/h (0 Bft)
04.04.2009 06:40 21,7 C 6,8 C 4,4 C 82 % 0 % 1013 hPa 0,0 l/m 0,0 km/h (0 Bft)
04.04.2009 06:43 21,7 C 6,8 C 4,5 C 82 % 0 % 1013 hPa 0,0 l/m 0,0 km/h (0 Bft)
04.04.2009 06:46 21,7 C 6,7 C 4,2 C 82 % 0 % 1013 hPa 0,0 l/m 0,0 km/h (0 Bft)
04.04.2009 06:49 21,7 C 6,7 C 4,2 C 82 % 0 % 1013 hPa 0,0 l/m 0,0 km/h (0 Bft)
04.04.2009 06:52 21,8 C 6,6 C 4,3 C 82 % 0 % 1013 hPa 0,0 l/m 0,0 km/h (0 Bft)
04.04.2009 06:55 21,8 C 6,6 C 4,3 C 82 % 0 % 1013 hPa 0,0 l/m 0,0 km/h (0 Bft)
04.04.2009 06:58 21,8 C 6,6 C 4,3 C 83 % 0 % 1013 hPa 0,0 l/m 0,0 km/h (0 Bft)
04.04.2009 07:01 21,8 C 6,5 C 4,3 C 83 % 0 % 1013 hPa 0,0 l/m 0,0 km/h (0 Bft)
04.04.2009 07:04 21,8 C 6,4 C 4,6 C 83 % 0 % 1013 hPa 0,0 l/m 0,0 km/h (0 Bft)
04.04.2009 07:07 21,8 C 6,4 C 4,8 C 83 % 0 % 1013 hPa 0,0 l/m 0,0 km/h (0 Bft)
04.04.2009 07:10 21,8 C 6,4 C 5,0 C 83 % 0 % 1013 hPa 0,0 l/m 0,0 km/h (0 Bft)
04.04.2009 07:13 21,8 C 6,5 C 5,0 C 83 % 0 % 1013 hPa 0,0 l/m 0,0 km/h (0 Bft)
04.04.2009 07:16 21,8 C 6,5 C 5,0 C 83 % 0 % 1013 hPa 0,0 l/m 0,0 km/h (0 Bft)
04.04.2009 07:19 21,8 C 6,4 C 5,1 C 82 % 0 % 1013 hPa 0,0 l/m 0,0 km/h (0 Bft)
04.04.2009 07:22 21,8 C 6,5 C 5,5 C 83 % 0 % 1013 hPa 0,0 l/m 0,0 km/h (0 Bft)
04.04.2009 07:25 21,8 C 6,5 C 5,7 C 83 % 0 % 1013 hPa 0,0 l/m 0,0 km/h (0 Bft)
04.04.2009 07:28 21,8 C 6,6 C 5,6 C 84 % 0 % 1013 hPa 0,0 l/m 0,0 km/h (0 Bft)
04.04.2009 07:31 21,8 C 6,7 C 5,9 C 85 % 0 % 1013 hPa 0,0 l/m 0,0 km/h (0 Bft)
04.04.2009 07:34 21,8 C 6,8 C 5,8 C 84 % 0 % 1013 hPa 0,0 l/m 0,0 km/h (0 Bft)
04.04.2009 07:37 21,8 C 6,8 C 5,8 C 84 % 0 % 1013 hPa 0,0 l/m 0,0 km/h (0 Bft)
04.04.2009 07:40 21,8 C 6,9 C 6,3 C 84 % 0 % 1013 hPa 0,0 l/m 0,0 km/h (0 Bft)
04.04.2009 07:43 21,8 C 6,9 C 6,5 C 84 % 0 % 1013 hPa 0,0 l/m 0,0 km/h (0 Bft)
04.04.2009 07:46 21,9 C 7,0 C 6,5 C 84 % 0 % 1013 hPa 0,0 l/m 0,0 km/h (0 Bft)
04.04.2009 07:49 21,9 C 7,0 C 6,6 C 85 % 0 % 1013 hPa 0,0 l/m 0,0 km/h (0 Bft)
04.04.2009 07:52 22,0 C 7,0 C 6,7 C 85 % 0 % 1013 hPa 0,0 l/m 0,0 km/h (0 Bft)
04.04.2009 07:55 22,0 C 7,2 C 6,9 C 84 % 0 % 1013 hPa 0,0 l/m 0,0 km/h (0 Bft)
04.04.2009 07:58 22,0 C 7,4 C 7,2 C 85 % 0 % 1013 hPa 0,0 l/m 0,0 km/h (0 Bft)
04.04.2009 08:01 22,0 C 7,4 C 7,7 C 85 % 0 % 1013 hPa 0,0 l/m 0,0 km/h (0 Bft)
04.04.2009 08:04 22,1 C 7,5 C 8,7 C 84 % 0 % 1013 hPa 0,0 l/m 0,0 km/h (0 Bft)
04.04.2009 08:07 22,1 C 7,5 C 8,5 C 84 % 0 % 1013 hPa 0,0 l/m 0,0 km/h (0 Bft)
04.04.2009 08:10 22,2 C 7,6 C 9,2 C 84 % 0 % 1013 hPa 0,0 l/m 0,0 km/h (0 Bft)
04.04.2009 08:13 22,2 C 7,8 C 11,3 C 84 % 0 % 1013 hPa 0,0 l/m 0,0 km/h (0 Bft)
04.04.2009 08:16 22,2 C 7,9 C 12,7 C 84 % 0 % 1013 hPa 0,0 l/m 0,0 km/h (0 Bft)
04.04.2009 08:19 22,2 C 8,0 C 12,9 C 84 % 0 % 1013 hPa 0,0 l/m 0,0 km/h (0 Bft)
04.04.2009 08:22 22,3 C 8,0 C 13,6 C 84 % 0 % 1013 hPa 0,0 l/m 0,0 km/h (0 Bft)
04.04.2009 08:25 22,3 C 8,2 C 14,0 C 84 % 0 % 1013 hPa 0,0 l/m 0,0 km/h (0 Bft)
04.04.2009 08:28 22,3 C 8,3 C 13,9 C 85 % 0 % 1013 hPa 0,0 l/m 0,0 km/h (0 Bft)
04.04.2009 08:31 22,4 C 8,3 C 14,1 C 85 % 0 % 1013 hPa 0,0 l/m 0,0 km/h (0 Bft)
04.04.2009 08:34 22,4 C 8,4 C 14,1 C 84 % 0 % 1013 hPa 0,0 l/m 0,0 km/h (0 Bft)
04.04.2009 08:37 22,3 C 8,4 C 14,5 C 84 % 0 % 1013 hPa 0,0 l/m 0,0 km/h (0 Bft)
04.04.2009 08:40 22,4 C 8,6 C 14,5 C 84 % 0 % 1013 hPa 0,0 l/m 0,0 km/h (0 Bft)
04.04.2009 08:43 22,4 C 8,8 C 14,9 C 84 % 0 % 1013 hPa 0,0 l/m 0,0 km/h (0 Bft)
04.04.2009 08:46 22,4 C 8,9 C 14,9 C 84 % 0 % 1013 hPa 0,0 l/m 0,0 km/h (0 Bft)
04.04.2009 08:49 22,4 C 8,9 C 16,0 C 84 % 0 % 1013 hPa 0,0 l/m 0,1 km/h (0 Bft)
04.04.2009 08:52 22,4 C 9,0 C 16,0 C 84 % 0 % 1014 hPa 0,0 l/m 0,0 km/h (0 Bft)
04.04.2009 08:55 22,3 C 9,1 C 17,0 C 84 % 0 % 1014 hPa 0,0 l/m 0,0 km/h (0 Bft)
04.04.2009 08:58 22,4 C 9,1 C 17,6 C 83 % 0 % 1014 hPa 0,0 l/m 0,0 km/h (0 Bft)
04.04.2009 09:01 22,4 C 9,2 C 17,7 C 83 % 0 % 1014 hPa 0,0 l/m 0,0 km/h (0 Bft)
04.04.2009 09:04 22,4 C 9,2 C 17,7 C 83 % 0 % 1014 hPa 0,0 l/m 0,0 km/h (0 Bft)
04.04.2009 09:07 22,3 C 9,3 C 18,1 C 83 % 0 % 1014 hPa 0,0 l/m 0,1 km/h (0 Bft)
04.04.2009 09:10 22,3 C 9,4 C 18,5 C 83 % 0 % 1014 hPa 0,0 l/m 0,0 km/h (0 Bft)
04.04.2009 09:13 22,3 C 9,6 C 18,3 C 83 % 0 % 1014 hPa 0,0 l/m 0,0 km/h (0 Bft)
04.04.2009 09:16 22,3 C 9,7 C 18,6 C 83 % 0 % 1014 hPa 0,0 l/m 0,0 km/h (0 Bft)
04.04.2009 09:19 21,7 C 9,8 C 19,0 C 83 % 0 % 1014 hPa 0,0 l/m 0,0 km/h (0 Bft)
04.04.2009 09:22 21,2 C 9,9 C 18,5 C 82 % 0 % 1014 hPa 0,0 l/m 0,3 km/h (0 Bft)
04.04.2009 09:25 20,6 C 10,0 C 19,3 C 83 % 0 % 1014 hPa 0,0 l/m 0,3 km/h (0 Bft)
04.04.2009 09:28 20,3 C 10,1 C 18,9 C 82 % 0 % 1014 hPa 0,0 l/m 0,0 km/h (0 Bft)
04.04.2009 09:31 20,4 C 10,1 C 20,6 C 82 % 0 % 1014 hPa 0,0 l/m 0,3 km/h (0 Bft)
04.04.2009 09:34 20,6 C 10,1 C 23,5 C 82 % 0 % 1014 hPa 0,0 l/m 0,0 km/h (0 Bft)
04.04.2009 09:37 20,8 C 10,1 C 24,4 C 82 % 0 % 1014 hPa 0,0 l/m 0,0 km/h (0 Bft)
04.04.2009 09:40 21,1 C 10,2 C 25,2 C 81 % 0 % 1014 hPa 0,0 l/m 0,0 km/h (0 Bft)
04.04.2009 09:43 21,2 C 10,2 C 24,4 C 81 % 0 % 1014 hPa 0,0 l/m 0,3 km/h (0 Bft)
04.04.2009 09:46 21,5 C 10,3 C 25,5 C 81 % 0 % 1014 hPa 0,0 l/m 0,3 km/h (0 Bft)
04.04.2009 09:49 21,6 C 10,4 C 26,4 C 81 % 0 % 1014 hPa 0,0 l/m 0,0 km/h (0 Bft)
04.04.2009 09:52 21,6 C 10,5 C 26,4 C 81 % 0 % 1014 hPa 0,0 l/m 0,1 km/h (0 Bft)
04.04.2009 09:55 21,7 C 10,6 C 26,6 C 80 % 0 % 1014 hPa 0,0 l/m 0,8 km/h (0 Bft)
04.04.2009 09:58 21,7 C 10,6 C 26,8 C 80 % 0 % 1014 hPa 0,0 l/m 0,8 km/h (0 Bft)
04.04.2009 10:01 21,8 C 10,9 C 26,0 C 78 % 0 % 1014 hPa 0,0 l/m 0,6 km/h (0 Bft)
04.04.2009 10:04 21,8 C 10,9 C 26,5 C 78 % 0 % 1014 hPa 0,0 l/m 0,0 km/h (0 Bft)
04.04.2009 10:07 21,8 C 11,1 C 25,9 C 79 % 0 % 1014 hPa 0,0 l/m 3,5 km/h (1 Bft)
04.04.2009 10:10 21,8 C 11,2 C 26,0 C 78 % 0 % 1014 hPa 0,0 l/m 0,1 km/h (0 Bft)
04.04.2009 10:13 21,8 C 11,3 C 25,5 C 78 % 0 % 1014 hPa 0,0 l/m 0,6 km/h (0 Bft)
04.04.2009 10:16 21,8 C 11,4 C 25,5 C 78 % 0 % 1014 hPa 0,0 l/m 0,0 km/h (0 Bft)
04.04.2009 10:19 21,8 C 11,6 C 26,0 C 78 % 0 % 1014 hPa 0,0 l/m 0,0 km/h (0 Bft)
04.04.2009 10:22 21,8 C 11,7 C 26,0 C 77 % 0 % 1014 hPa 0,0 l/m 0,6 km/h (0 Bft)
04.04.2009 10:25 21,8 C 11,8 C 23,7 C 77 % 0 % 1014 hPa 0,0 l/m 0,6 km/h (0 Bft)
04.04.2009 10:28 21,9 C 11,8 C 27,0 C 77 % 0 % 1014 hPa 0,0 l/m 0,0 km/h (0 Bft)
04.04.2009 10:31 21,8 C 12,0 C 28,4 C 77 % 0 % 1014 hPa 0,0 l/m 0,4 km/h (0 Bft)
04.04.2009 10:34 21,9 C 12,2 C 28,3 C 77 % 0 % 1014 hPa 0,0 l/m 1,6 km/h (1 Bft)
04.04.2009 10:37 21,9 C 12,2 C 27,7 C 75 % 0 % 1014 hPa 0,0 l/m 0,4 km/h (0 Bft)
04.04.2009 10:40 21,9 C 12,3 C 27,6 C 75 % 0 % 1014 hPa 0,0 l/m 0,3 km/h (0 Bft)
04.04.2009 10:43 21,9 C 12,4 C 28,2 C 76 % 0 % 1014 hPa 0,0 l/m 0,6 km/h (0 Bft)
04.04.2009 10:46 21,9 C 12,6 C 28,6 C 76 % 0 % 1014 hPa 0,0 l/m 0,4 km/h (0 Bft)
04.04.2009 10:49 21,9 C 12,8 C 26,8 C 76 % 0 % 1014 hPa 0,0 l/m 0,1 km/h (0 Bft)
04.04.2009 10:52 21,9 C 12,9 C 28,4 C 75 % 0 % 1014 hPa 0,0 l/m 0,1 km/h (0 Bft)
04.04.2009 10:55 21,9 C 13,1 C 28,3 C 74 % 0 % 1014 hPa 0,0 l/m 0,3 km/h (0 Bft)
04.04.2009 10:58 22,0 C 13,2 C 26,8 C 74 % 0 % 1014 hPa 0,0 l/m 0,7 km/h (0 Bft)
04.04.2009 11:01 22,0 C 13,4 C 26,7 C 74 % 0 % 1014 hPa 0,0 l/m 0,3 km/h (0 Bft)
04.04.2009 11:04 22,0 C 13,6 C 27,2 C 73 % 0 % 1014 hPa 0,0 l/m 0,8 km/h (0 Bft)
04.04.2009 11:07 22,0 C 13,6 C 28,3 C 71 % 0 % 1014 hPa 0,0 l/m 0,3 km/h (0 Bft)
04.04.2009 11:10 22,0 C 13,7 C 28,5 C 72 % 0 % 1014 hPa 0,0 l/m 6,3 km/h (2 Bft)
04.04.2009 11:13 22,0 C 13,8 C 26,4 C 72 % 0 % 1014 hPa 0,0 l/m 4,8 km/h (1 Bft)
04.04.2009 11:16 22,1 C 13,8 C 22,8 C 72 % 0 % 1014 hPa 0,0 l/m 1,5 km/h (1 Bft)
04.04.2009 11:19 22,0 C 14,1 C 24,4 C 71 % 0 % 1014 hPa 0,0 l/m 0,6 km/h (0 Bft)
04.04.2009 11:22 22,0 C 14,2 C 23,8 C 70 % 0 % 1014 hPa 0,0 l/m 0,7 km/h (0 Bft)
04.04.2009 11:25 22,1 C 14,2 C 23,8 C 70 % 0 % 1014 hPa 0,0 l/m 3,6 km/h (1 Bft)
04.04.2009 11:28 22,1 C 14,4 C 19,3 C 68 % 0 % 1014 hPa 0,0 l/m 0,6 km/h (0 Bft)
04.04.2009 11:31 21,8 C 14,5 C 23,2 C 70 % 0 % 1014 hPa 0,0 l/m 8,1 km/h (2 Bft)
04.04.2009 11:34 21,8 C 14,4 C 22,2 C 67 % 0 % 1014 hPa 0,0 l/m 4,8 km/h (1 Bft)
04.04.2009 11:37 21,7 C 14,4 C 24,3 C 68 % 0 % 1014 hPa 0,0 l/m 0,0 km/h (0 Bft)
04.04.2009 11:40 21,7 C 14,5 C 24,6 C 68 % 0 % 1014 hPa 0,0 l/m 5,6 km/h (1 Bft)
04.04.2009 11:43 21,8 C 14,6 C 24,7 C 68 % 0 % 1014 hPa 0,0 l/m 0,7 km/h (0 Bft)
04.04.2009 11:46 21,8 C 14,6 C 24,0 C 68 % 0 % 1014 hPa 0,0 l/m 0,7 km/h (0 Bft)
04.04.2009 11:49 21,8 C 14,7 C 26,3 C 69 % 0 % 1014 hPa 0,0 l/m 1,0 km/h (0 Bft)
04.04.2009 11:52 21,8 C 14,9 C 26,8 C 69 % 0 % 1014 hPa 0,0 l/m 0,2 km/h (0 Bft)
04.04.2009 11:55 21,9 C 15,0 C 27,0 C 68 % 0 % 1014 hPa 0,0 l/m 0,4 km/h (0 Bft)
04.04.2009 11:58 22,0 C 15,2 C 23,7 C 68 % 0 % 1014 hPa 0,0 l/m 4,8 km/h (1 Bft)
04.04.2009 12:01 22,0 C 15,3 C 23,6 C 67 % 0 % 1014 hPa 0,0 l/m 4,9 km/h (1 Bft)
04.04.2009 12:04 22,0 C 15,4 C 25,2 C 67 % 0 % 1014 hPa 0,0 l/m 1,6 km/h (1 Bft)
04.04.2009 12:07 22,0 C 15,6 C 25,4 C 68 % 0 % 1014 hPa 0,0 l/m 9,0 km/h (2 Bft)
04.04.2009 12:10 22,0 C 15,8 C 25,4 C 66 % 0 % 1014 hPa 0,0 l/m 0,4 km/h (0 Bft)
04.04.2009 12:13 22,0 C 15,9 C 24,1 C 67 % 0 % 1014 hPa 0,0 l/m 7,0 km/h (2 Bft)
04.04.2009 12:16 21,9 C 15,9 C 25,0 C 65 % 0 % 1014 hPa 0,0 l/m 5,3 km/h (1 Bft)
04.04.2009 12:19 22,0 C 16,0 C 26,3 C 66 % 0 % 1014 hPa 0,0 l/m 5,2 km/h (1 Bft)
04.04.2009 12:22 21,9 C 16,1 C 27,1 C 65 % 0 % 1014 hPa 0,0 l/m 0,1 km/h (0 Bft)
04.04.2009 12:25 21,9 C 16,2 C 27,7 C 66 % 0 % 1014 hPa 0,0 l/m 0,6 km/h (0 Bft)
04.04.2009 12:28 21,9 C 16,4 C 26,7 C 61 % 0 % 1014 hPa 0,0 l/m 2,9 km/h (1 Bft)
04.04.2009 12:31 21,9 C 16,4 C 26,3 C 65 % 0 % 1014 hPa 0,0 l/m 8,5 km/h (2 Bft)
04.04.2009 12:34 21,8 C 16,4 C 25,3 C 65 % 0 % 1014 hPa 0,0 l/m 4,3 km/h (1 Bft)
04.04.2009 12:37 21,9 C 16,7 C 26,2 C 66 % 0 % 1014 hPa 0,0 l/m 10,6 km/h (2 Bft)
04.04.2009 12:40 21,8 C 16,8 C 27,6 C 63 % 0 % 1014 hPa 0,0 l/m 1,3 km/h (1 Bft)
04.04.2009 12:43 21,8 C 16,8 C 27,5 C 63 % 0 % 1014 hPa 0,0 l/m 6,5 km/h (2 Bft)
04.04.2009 12:46 21,8 C 16,8 C 25,7 C 63 % 0 % 1013 hPa 0,0 l/m 4,7 km/h (1 Bft)
04.04.2009 12:49 21,8 C 17,1 C 26,4 C 63 % 0 % 1014 hPa 0,0 l/m 0,6 km/h (0 Bft)
04.04.2009 12:52 21,8 C 17,1 C 25,1 C 63 % 0 % 1013 hPa 0,0 l/m 10,8 km/h (2 Bft)
04.04.2009 12:55 21,8 C 17,3 C 26,4 C 63 % 0 % 1013 hPa 0,0 l/m 10,8 km/h (2 Bft)
04.04.2009 12:58 21,8 C 17,4 C 26,4 C 63 % 0 % 1013 hPa 0,0 l/m 5,0 km/h (1 Bft)
04.04.2009 13:01 21,8 C 17,4 C 25,6 C 60 % 0 % 1013 hPa 0,0 l/m 5,8 km/h (2 Bft)
04.04.2009 13:04 21,8 C 17,4 C 24,4 C 62 % 0 % 1013 hPa 0,0 l/m 0,4 km/h (0 Bft)
04.04.2009 13:07 21,8 C 17,4 C 24,1 C 62 % 0 % 1013 hPa 0,0 l/m 4,5 km/h (1 Bft)
04.04.2009 13:10 21,8 C 17,7 C 24,0 C 59 % 0 % 1013 hPa 0,0 l/m 10,1 km/h (2 Bft)
04.04.2009 13:13 21,8 C 17,8 C 23,8 C 62 % 0 % 1013 hPa 0,0 l/m 8,6 km/h (2 Bft)
04.04.2009 13:16 21,8 C 17,8 C 22,5 C 62 % 0 % 1013 hPa 0,0 l/m 5,9 km/h (2 Bft)
04.04.2009 13:19 21,8 C 18,0 C 22,2 C 61 % 0 % 1013 hPa 0,0 l/m 5,9 km/h (2 Bft)
04.04.2009 13:22 21,7 C 18,1 C 22,2 C 60 % 0 % 1013 hPa 0,0 l/m 0,7 km/h (0 Bft)
04.04.2009 13:25 21,8 C 18,2 C 20,8 C 61 % 0 % 1013 hPa 0,0 l/m 6,7 km/h (2 Bft)
04.04.2009 13:28 21,8 C 18,2 C 20,5 C 61 % 0 % 1013 hPa 0,0 l/m 3,1 km/h (1 Bft)
04.04.2009 13:31 21,8 C 18,1 C 21,7 C 60 % 0 % 1013 hPa 0,0 l/m 5,8 km/h (2 Bft)
04.04.2009 13:34 21,8 C 18,1 C 21,2 C 62 % 0 % 1013 hPa 0,0 l/m 0,3 km/h (0 Bft)
04.04.2009 13:37 21,7 C 18,1 C 21,7 C 62 % 0 % 1013 hPa 0,0 l/m 0,3 km/h (0 Bft)
04.04.2009 13:40 21,7 C 18,5 C 22,4 C 61 % 0 % 1013 hPa 0,0 l/m 5,4 km/h (1 Bft)
04.04.2009 13:43 21,7 C 18,5 C 22,4 C 61 % 0 % 1013 hPa 0,0 l/m 4,8 km/h (1 Bft)
04.04.2009 13:46 21,7 C 18,5 C 22,2 C 60 % 0 % 1013 hPa 0,0 l/m 10,8 km/h (2 Bft)
04.04.2009 13:49 21,8 C 18,4 C 22,7 C 61 % 0 % 1013 hPa 0,0 l/m 7,4 km/h (2 Bft)
04.04.2009 13:52 21,7 C 18,6 C 23,2 C 62 % 0 % 1013 hPa 0,0 l/m 6,7 km/h (2 Bft)
04.04.2009 13:55 21,7 C 18,7 C 22,6 C 60 % 0 % 1013 hPa 0,0 l/m 6,3 km/h (2 Bft)
04.04.2009 13:58 21,7 C 18,6 C 22,8 C 61 % 0 % 1013 hPa 0,0 l/m 9,8 km/h (2 Bft)
04.04.2009 14:01 21,7 C 18,5 C 23,3 C 58 % 0 % 1013 hPa 0,0 l/m 9,8 km/h (2 Bft)
04.04.2009 14:04 21,7 C 18,5 C 23,9 C 60 % 0 % 1013 hPa 0,0 l/m 10,0 km/h (2 Bft)
04.04.2009 14:07 21,7 C 18,5 C 23,9 C 57 % 0 % 1013 hPa 0,0 l/m 9,9 km/h (2 Bft)
04.04.2009 14:10 21,7 C 18,6 C 22,8 C 57 % 0 % 1013 hPa 0,0 l/m 6,9 km/h (2 Bft)
04.04.2009 14:13 21,7 C 18,6 C 22,6 C 57 % 0 % 1013 hPa 0,0 l/m 11,1 km/h (2 Bft)
04.04.2009 14:16 21,7 C 18,6 C 23,0 C 59 % 0 % 1013 hPa 0,0 l/m 11,1 km/h (2 Bft)
04.04.2009 14:19 21,7 C 18,6 C 23,5 C 59 % 0 % 1013 hPa 0,0 l/m 1,0 km/h (0 Bft)
04.04.2009 14:22 21,7 C 18,6 C 23,4 C 59 % 0 % 1013 hPa 0,0 l/m 1,0 km/h (0 Bft)
04.04.2009 14:25 21,7 C 19,0 C 23,5 C 56 % 0 % 1013 hPa 0,0 l/m 10,9 km/h (2 Bft)
04.04.2009 14:28 21,6 C 19,1 C 23,9 C 59 % 0 % 1013 hPa 0,0 l/m 0,3 km/h (0 Bft)
04.04.2009 14:31 21,7 C 19,2 C 23,4 C 58 % 0 % 1013 hPa 0,0 l/m 5,4 km/h (1 Bft)
04.04.2009 14:34 21,7 C 19,4 C 24,3 C 58 % 0 % 1013 hPa 0,0 l/m 5,2 km/h (1 Bft)
04.04.2009 14:37 21,7 C 19,4 C 23,8 C 59 % 0 % 1013 hPa 0,0 l/m 9,0 km/h (2 Bft)
04.04.2009 14:40 21,6 C 19,4 C 24,0 C 56 % 0 % 1013 hPa 0,0 l/m 3,3 km/h (1 Bft)
04.04.2009 14:43 21,6 C 19,4 C 23,8 C 56 % 0 % 1013 hPa 0,0 l/m 3,7 km/h (1 Bft)
04.04.2009 14:46 21,7 C 19,4 C 22,9 C 55 % 0 % 1013 hPa 0,0 l/m 9,9 km/h (2 Bft)
04.04.2009 14:49 21,7 C 19,4 C 23,4 C 55 % 0 % 1013 hPa 0,0 l/m 8,7 km/h (2 Bft)
04.04.2009 14:52 21,6 C 19,3 C 21,9 C 55 % 0 % 1013 hPa 0,0 l/m 11,3 km/h (2 Bft)
04.04.2009 14:55 21,6 C 19,3 C 22,9 C 55 % 0 % 1013 hPa 0,0 l/m 11,3 km/h (2 Bft)
04.04.2009 14:58 21,6 C 19,4 C 22,8 C 56 % 0 % 1013 hPa 0,0 l/m 6,1 km/h (2 Bft)
04.04.2009 15:01 21,7 C 19,4 C 22,8 C 53 % 0 % 1013 hPa 0,0 l/m 10,8 km/h (2 Bft)
04.04.2009 15:04 21,6 C 19,4 C 22,5 C 51 % 0 % 1013 hPa 0,0 l/m 13,6 km/h (3 Bft)
04.04.2009 15:07 21,6 C 19,4 C 22,5 C 51 % 0 % 1013 hPa 0,0 l/m 13,8 km/h (3 Bft)
04.04.2009 15:10 21,6 C 19,4 C 22,0 C 52 % 0 % 1013 hPa 0,0 l/m 12,3 km/h (3 Bft)
04.04.2009 15:13 21,6 C 19,4 C 21,7 C 52 % 0 % 1013 hPa 0,0 l/m 14,1 km/h (3 Bft)
04.04.2009 15:16 21,6 C 19,4 C 21,6 C 54 % 0 % 1013 hPa 0,0 l/m 16,9 km/h (3 Bft)
04.04.2009 15:19 21,6 C 19,4 C 21,3 C 58 % 0 % 1013 hPa 0,0 l/m 12,8 km/h (3 Bft)
04.04.2009 15:22 21,6 C 19,5 C 21,6 C 58 % 0 % 1013 hPa 0,0 l/m 9,8 km/h (2 Bft)
04.04.2009 15:25 21,7 C 19,5 C 21,4 C 49 % 0 % 1013 hPa 0,0 l/m 14,8 km/h (3 Bft)
04.04.2009 15:28 21,6 C 19,6 C 21,3 C 52 % 0 % 1013 hPa 0,0 l/m 8,1 km/h (2 Bft)
04.04.2009 15:31 21,6 C 19,7 C 21,4 C 47 % 0 % 1013 hPa 0,0 l/m 7,7 km/h (2 Bft)
04.04.2009 15:34 21,6 C 19,6 C 21,5 C 48 % 0 % 1013 hPa 0,0 l/m 13,8 km/h (3 Bft)
04.04.2009 15:37 21,6 C 19,6 C 21,1 C 49 % 0 % 1013 hPa 0,0 l/m 12,8 km/h (3 Bft)
04.04.2009 15:40 21,6 C 19,6 C 20,9 C 49 % 0 % 1013 hPa 0,0 l/m 13,0 km/h (3 Bft)
04.04.2009 15:43 21,6 C 19,6 C 20,9 C 49 % 0 % 1013 hPa 0,0 l/m 10,9 km/h (2 Bft)
04.04.2009 15:46 21,6 C 19,6 C 21,0 C 42 % 0 % 1013 hPa 0,0 l/m 10,7 km/h (2 Bft)
04.04.2009 15:49 21,5 C 19,6 C 20,8 C 42 % 0 % 1013 hPa 0,0 l/m 6,8 km/h (2 Bft)
04.04.2009 15:52 21,6 C 19,8 C 20,8 C 50 % 0 % 1012 hPa 0,0 l/m 12,9 km/h (3 Bft)
04.04.2009 15:55 21,6 C 19,9 C 20,8 C 48 % 0 % 1012 hPa 0,0 l/m 15,0 km/h (3 Bft)
04.04.2009 15:58 21,6 C 19,8 C 20,7 C 47 % 0 % 1012 hPa 0,0 l/m 15,0 km/h (3 Bft)
04.04.2009 16:01 21,6 C 19,8 C 20,7 C 50 % 0 % 1012 hPa 0,0 l/m 9,2 km/h (2 Bft)
04.04.2009 16:04 21,6 C 19,8 C 20,6 C 48 % 0 % 1012 hPa 0,0 l/m 7,9 km/h (2 Bft)
04.04.2009 16:07 21,6 C 19,8 C 20,8 C 49 % 0 % 1012 hPa 0,0 l/m 6,2 km/h (2 Bft)
04.04.2009 16:10 21,6 C 19,9 C 20,8 C 49 % 0 % 1012 hPa 0,0 l/m 6,2 km/h (2 Bft)
04.04.2009 16:13 21,6 C 20,0 C 20,6 C 47 % 0 % 1013 hPa 0,0 l/m 9,2 km/h (2 Bft)
04.04.2009 16:16 21,6 C 20,0 C 20,6 C 47 % 0 % 1012 hPa 0,0 l/m 12,4 km/h (3 Bft)
04.04.2009 16:19 21,6 C 19,9 C 20,3 C 47 % 0 % 1012 hPa 0,0 l/m 15,5 km/h (3 Bft)
04.04.2009 16:22 21,6 C 19,9 C 20,3 C 52 % 0 % 1012 hPa 0,0 l/m 11,0 km/h (2 Bft)
04.04.2009 16:25 21,6 C 19,9 C 19,8 C 46 % 0 % 1012 hPa 0,0 l/m 14,3 km/h (3 Bft)
04.04.2009 16:28 21,6 C 19,9 C 20,1 C 46 % 0 % 1012 hPa 0,0 l/m 12,1 km/h (2 Bft)
04.04.2009 16:31 21,7 C 19,9 C 20,1 C 46 % 0 % 1012 hPa 0,0 l/m 9,5 km/h (2 Bft)
04.04.2009 16:34 21,7 C 19,9 C 20,1 C 43 % 0 % 1012 hPa 0,0 l/m 8,9 km/h (2 Bft)
04.04.2009 16:37 21,6 C 20,0 C 20,1 C 45 % 0 % 1012 hPa 0,0 l/m 8,3 km/h (2 Bft)
04.04.2009 16:40 21,7 C 20,0 C 20,1 C 45 % 0 % 1012 hPa 0,0 l/m 14,0 km/h (3 Bft)
04.04.2009 16:43 21,6 C 20,0 C 20,0 C 41 % 0 % 1012 hPa 0,0 l/m 8,0 km/h (2 Bft)
04.04.2009 16:46 21,6 C 20,0 C 19,7 C 42 % 0 % 1012 hPa 0,0 l/m 17,1 km/h (3 Bft)
04.04.2009 16:49 21,6 C 20,0 C 19,7 C 42 % 0 % 1012 hPa 0,0 l/m 14,6 km/h (3 Bft)
04.04.2009 16:52 21,6 C 20,0 C 19,6 C 45 % 0 % 1012 hPa 0,0 l/m 10,8 km/h (2 Bft)
04.04.2009 16:55 21,6 C 20,0 C 19,6 C 44 % 0 % 1012 hPa 0,0 l/m 9,6 km/h (2 Bft)
04.04.2009 16:58 21,6 C 20,0 C 19,6 C 44 % 0 % 1012 hPa 0,0 l/m 12,9 km/h (3 Bft)
04.04.2009 17:01 21,7 C 19,9 C 19,6 C 46 % 0 % 1012 hPa 0,0 l/m 9,0 km/h (2 Bft)
04.04.2009 17:04 21,6 C 20,0 C 19,5 C 45 % 0 % 1012 hPa 0,0 l/m 11,9 km/h (2 Bft)
04.04.2009 17:07 21,6 C 19,9 C 19,5 C 44 % 0 % 1012 hPa 0,0 l/m 16,4 km/h (3 Bft)
04.04.2009 17:10 21,6 C 19,9 C 19,5 C 44 % 0 % 1012 hPa 0,0 l/m 13,3 km/h (3 Bft)
04.04.2009 17:13 21,6 C 19,9 C 19,5 C 45 % 0 % 1012 hPa 0,0 l/m 9,1 km/h (2 Bft)
04.04.2009 17:16 21,6 C 19,9 C 19,3 C 47 % 0 % 1012 hPa 0,0 l/m 13,2 km/h (3 Bft)
04.04.2009 17:19 21,6 C 19,8 C 19,4 C 48 % 0 % 1012 hPa 0,0 l/m 13,8 km/h (3 Bft)
04.04.2009 17:22 21,6 C 19,8 C 19,5 C 46 % 0 % 1012 hPa 0,0 l/m 13,9 km/h (3 Bft)
04.04.2009 17:25 21,6 C 19,8 C 19,5 C 46 % 0 % 1012 hPa 0,0 l/m 9,4 km/h (2 Bft)
04.04.2009 17:28 21,6 C 19,7 C 19,3 C 49 % 0 % 1012 hPa 0,0 l/m 9,4 km/h (2 Bft)
04.04.2009 17:31 21,6 C 19,8 C 19,2 C 46 % 0 % 1012 hPa 0,0 l/m 14,3 km/h (3 Bft)
04.04.2009 17:34 21,6 C 19,8 C 19,0 C 46 % 0 % 1012 hPa 0,0 l/m 10,6 km/h (2 Bft)
04.04.2009 17:37 21,6 C 19,7 C 19,0 C 48 % 0 % 1012 hPa 0,0 l/m 8,3 km/h (2 Bft)
04.04.2009 17:40 21,6 C 19,7 C 18,9 C 48 % 0 % 1012 hPa 0,0 l/m 10,4 km/h (2 Bft)
04.04.2009 17:43 21,6 C 19,7 C 18,9 C 47 % 0 % 1012 hPa 0,0 l/m 11,8 km/h (2 Bft)
04.04.2009 17:46 21,6 C 19,7 C 18,7 C 47 % 0 % 1012 hPa 0,0 l/m 10,3 km/h (2 Bft)
04.04.2009 17:49 21,6 C 19,6 C 18,6 C 49 % 0 % 1012 hPa 0,0 l/m 16,8 km/h (3 Bft)
04.04.2009 17:52 21,6 C 19,6 C 18,5 C 49 % 0 % 1012 hPa 0,0 l/m 10,8 km/h (2 Bft)
04.04.2009 17:55 21,6 C 19,7 C 18,5 C 47 % 0 % 1012 hPa 0,0 l/m 11,0 km/h (2 Bft)
04.04.2009 17:58 21,6 C 19,7 C 18,5 C 47 % 0 % 1012 hPa 0,0 l/m 7,2 km/h (2 Bft)
04.04.2009 18:01 21,6 C 19,7 C 18,5 C 48 % 0 % 1012 hPa 0,0 l/m 5,6 km/h (1 Bft)
04.04.2009 18:04 21,6 C 19,6 C 18,3 C 49 % 0 % 1012 hPa 0,0 l/m 11,7 km/h (2 Bft)
04.04.2009 18:07 21,6 C 19,6 C 18,1 C 49 % 0 % 1012 hPa 0,0 l/m 8,7 km/h (2 Bft)
04.04.2009 18:10 21,6 C 19,5 C 18,1 C 50 % 0 % 1012 hPa 0,0 l/m 3,7 km/h (1 Bft)
04.04.2009 18:13 21,6 C 19,6 C 18,2 C 48 % 0 % 1012 hPa 0,0 l/m 4,4 km/h (1 Bft)
04.04.2009 18:16 21,6 C 19,6 C 18,0 C 49 % 0 % 1012 hPa 0,0 l/m 4,6 km/h (1 Bft)
04.04.2009 18:19 21,6 C 19,8 C 17,9 C 48 % 0 % 1012 hPa 0,0 l/m 2,6 km/h (1 Bft)
04.04.2009 18:22 21,6 C 19,8 C 17,9 C 48 % 0 % 1012 hPa 0,0 l/m 7,7 km/h (2 Bft)
04.04.2009 18:25 21,6 C 19,6 C 17,5 C 48 % 0 % 1012 hPa 0,0 l/m 5,0 km/h (1 Bft)
04.04.2009 18:28 21,6 C 19,6 C 17,4 C 48 % 0 % 1012 hPa 0,0 l/m 5,0 km/h (1 Bft)
04.04.2009 18:31 21,6 C 19,8 C 17,2 C 49 % 0 % 1012 hPa 0,0 l/m 10,3 km/h (2 Bft)
04.04.2009 18:34 21,7 C 19,9 C 17,0 C 48 % 0 % 1012 hPa 0,0 l/m 8,3 km/h (2 Bft)
04.04.2009 18:37 21,7 C 20,0 C 16,9 C 46 % 0 % 1012 hPa 0,0 l/m 6,6 km/h (2 Bft)
04.04.2009 18:40 21,8 C 19,9 C 16,8 C 47 % 0 % 1012 hPa 0,0 l/m 4,5 km/h (1 Bft)
04.04.2009 18:43 21,8 C 19,9 C 16,5 C 47 % 0 % 1012 hPa 0,0 l/m 6,5 km/h (2 Bft)
04.04.2009 18:46 21,8 C 19,9 C 16,4 C 47 % 0 % 1012 hPa 0,0 l/m 8,5 km/h (2 Bft)
04.04.2009 18:49 21,8 C 19,8 C 16,3 C 48 % 0 % 1012 hPa 0,0 l/m 5,6 km/h (1 Bft)
04.04.2009 18:52 21,8 C 19,6 C 16,3 C 48 % 0 % 1012 hPa 0,0 l/m 5,6 km/h (1 Bft)
04.04.2009 18:55 21,7 C 19,5 C 15,9 C 49 % 0 % 1012 hPa 0,0 l/m 5,4 km/h (1 Bft)
04.04.2009 18:58 21,7 C 19,4 C 15,7 C 48 % 0 % 1012 hPa 0,0 l/m 6,7 km/h (2 Bft)
04.04.2009 19:01 21,7 C 19,2 C 15,7 C 49 % 0 % 1012 hPa 0,0 l/m 6,7 km/h (2 Bft)
04.04.2009 19:04 21,6 C 19,1 C 15,4 C 50 % 0 % 1012 hPa 0,0 l/m 8,6 km/h (2 Bft)
04.04.2009 19:07 21,6 C 18,8 C 15,3 C 50 % 0 % 1012 hPa 0,0 l/m 3,2 km/h (1 Bft)
04.04.2009 19:10 21,6 C 18,6 C 15,2 C 50 % 0 % 1012 hPa 0,0 l/m 5,8 km/h (2 Bft)
04.04.2009 19:13 21,6 C 18,6 C 15,2 C 50 % 0 % 1012 hPa 0,0 l/m 4,0 km/h (1 Bft)
04.04.2009 19:16 21,6 C 18,3 C 14,8 C 51 % 0 % 1012 hPa 0,0 l/m 5,6 km/h (1 Bft)
04.04.2009 19:19 21,6 C 18,2 C 14,3 C 52 % 0 % 1012 hPa 0,0 l/m 1,8 km/h (1 Bft)
04.04.2009 19:22 21,6 C 18,0 C 14,0 C 52 % 0 % 1012 hPa 0,0 l/m 0,6 km/h (0 Bft)
04.04.2009 19:25 21,6 C 18,0 C 14,2 C 52 % 0 % 1012 hPa 0,0 l/m 6,1 km/h (2 Bft)
04.04.2009 19:28 21,6 C 18,0 C 14,2 C 52 % 0 % 1012 hPa 0,0 l/m 1,3 km/h (1 Bft)
04.04.2009 19:31 21,6 C 17,6 C 13,9 C 53 % 0 % 1012 hPa 0,0 l/m 5,7 km/h (1 Bft)
04.04.2009 19:34 21,6 C 17,3 C 14,1 C 53 % 0 % 1012 hPa 0,0 l/m 4,2 km/h (1 Bft)
04.04.2009 19:37 21,6 C 17,3 C 14,1 C 53 % 0 % 1012 hPa 0,0 l/m 4,2 km/h (1 Bft)
04.04.2009 19:40 21,6 C 17,3 C 14,0 C 53 % 0 % 1012 hPa 0,0 l/m 7,5 km/h (2 Bft)
04.04.2009 19:43 21,7 C 17,2 C 13,8 C 54 % 0 % 1012 hPa 0,0 l/m 7,5 km/h (2 Bft)
04.04.2009 19:46 21,8 C 17,2 C 12,9 C 54 % 0 % 1012 hPa 0,0 l/m 5,2 km/h (1 Bft)
04.04.2009 19:49 21,8 C 16,8 C 12,5 C 56 % 0 % 1012 hPa 0,0 l/m 6,2 km/h (2 Bft)
04.04.2009 19:52 21,8 C 16,7 C 12,1 C 56 % 0 % 1012 hPa 0,0 l/m 5,6 km/h (1 Bft)
04.04.2009 19:55 21,8 C 16,6 C 11,8 C 56 % 0 % 1013 hPa 0,0 l/m 5,6 km/h (1 Bft)
04.04.2009 19:58 21,8 C 16,4 C 11,5 C 57 % 0 % 1013 hPa 0,0 l/m 4,0 km/h (1 Bft)
04.04.2009 20:01 21,8 C 16,3 C 11,4 C 58 % 0 % 1013 hPa 0,0 l/m 5,5 km/h (1 Bft)
04.04.2009 20:04 21,8 C 16,2 C 11,4 C 58 % 0 % 1013 hPa 0,0 l/m 5,7 km/h (1 Bft)
04.04.2009 20:07 21,8 C 16,1 C 11,1 C 59 % 0 % 1013 hPa 0,0 l/m 4,8 km/h (1 Bft)
04.04.2009 20:10 21,8 C 16,0 C 11,0 C 60 % 0 % 1013 hPa 0,0 l/m 4,3 km/h (1 Bft)
04.04.2009 20:13 21,8 C 15,8 C 10,9 C 60 % 0 % 1013 hPa 0,0 l/m 4,7 km/h (1 Bft)
04.04.2009 20:16 21,8 C 15,8 C 10,8 C 60 % 0 % 1013 hPa 0,0 l/m 5,0 km/h (1 Bft)
04.04.2009 20:19 21,8 C 15,6 C 10,8 C 60 % 0 % 1013 hPa 0,0 l/m 5,7 km/h (1 Bft)
04.04.2009 20:22 21,8 C 15,6 C 10,9 C 60 % 0 % 1013 hPa 0,0 l/m 6,4 km/h (2 Bft)
04.04.2009 20:25 21,8 C 15,6 C 11,0 C 60 % 0 % 1013 hPa 0,0 l/m 4,9 km/h (1 Bft)
04.04.2009 20:28 21,8 C 15,6 C 11,0 C 59 % 0 % 1013 hPa 0,0 l/m 5,1 km/h (1 Bft)
04.04.2009 20:31 21,8 C 15,6 C 11,0 C 59 % 0 % 1013 hPa 0,0 l/m 5,1 km/h (1 Bft)
04.04.2009 20:34 21,8 C 15,7 C 11,2 C 59 % 0 % 1013 hPa 0,0 l/m 6,1 km/h (2 Bft)
04.04.2009 20:37 21,8 C 15,7 C 11,9 C 59 % 0 % 1013 hPa 0,0 l/m 6,3 km/h (2 Bft)
04.04.2009 20:40 21,8 C 15,7 C 12,1 C 59 % 0 % 1013 hPa 0,0 l/m 6,3 km/h (2 Bft)
04.04.2009 20:43 21,8 C 15,7 C 12,0 C 59 % 0 % 1013 hPa 0,0 l/m 6,0 km/h (2 Bft)
04.04.2009 20:46 21,8 C 15,7 C 12,2 C 59 % 0 % 1013 hPa 0,0 l/m 7,0 km/h (2 Bft)
04.04.2009 20:49 21,8 C 15,7 C 11,8 C 59 % 0 % 1013 hPa 0,0 l/m 7,8 km/h (2 Bft)
04.04.2009 20:52 21,8 C 15,6 C 12,2 C 59 % 0 % 1013 hPa 0,0 l/m 6,8 km/h (2 Bft)
04.04.2009 20:55 21,8 C 15,6 C 12,3 C 59 % 0 % 1013 hPa 0,0 l/m 7,8 km/h (2 Bft)
04.04.2009 20:58 21,8 C 15,5 C 12,4 C 59 % 0 % 1013 hPa 0,0 l/m 7,2 km/h (2 Bft)
04.04.2009 21:01 21,8 C 15,6 C 12,1 C 59 % 0 % 1013 hPa 0,0 l/m 7,2 km/h (2 Bft)
04.04.2009 21:04 21,8 C 15,5 C 12,2 C 59 % 0 % 1013 hPa 0,0 l/m 7,0 km/h (2 Bft)
04.04.2009 21:07 21,8 C 15,4 C 11,5 C 59 % 0 % 1013 hPa 0,0 l/m 5,8 km/h (2 Bft)
04.04.2009 21:10 21,8 C 15,4 C 11,6 C 59 % 0 % 1013 hPa 0,0 l/m 6,3 km/h (2 Bft)
04.04.2009 21:13 21,8 C 15,4 C 12,1 C 60 % 0 % 1013 hPa 0,0 l/m 6,3 km/h (2 Bft)
04.04.2009 21:16 21,8 C 15,3 C 12,5 C 60 % 0 % 1013 hPa 0,0 l/m 7,8 km/h (2 Bft)
04.04.2009 21:19 21,8 C 15,3 C 12,4 C 60 % 0 % 1013 hPa 0,0 l/m 6,4 km/h (2 Bft)
04.04.2009 21:22 21,8 C 15,3 C 12,5 C 60 % 0 % 1013 hPa 0,0 l/m 6,5 km/h (2 Bft)
04.04.2009 21:25 21,8 C 15,3 C 12,4 C 60 % 0 % 1013 hPa 0,0 l/m 4,3 km/h (1 Bft)
04.04.2009 21:28 21,8 C 15,3 C 12,4 C 60 % 0 % 1013 hPa 0,0 l/m 5,8 km/h (2 Bft)
04.04.2009 21:31 21,8 C 15,3 C 12,6 C 60 % 0 % 1013 hPa 0,0 l/m 3,6 km/h (1 Bft)
04.04.2009 21:34 21,8 C 15,3 C 12,3 C 60 % 0 % 1014 hPa 0,0 l/m 3,7 km/h (1 Bft)
04.04.2009 21:37 21,8 C 15,2 C 11,7 C 61 % 0 % 1014 hPa 0,0 l/m 3,9 km/h (1 Bft)
04.04.2009 21:40 21,8 C 15,0 C 11,7 C 62 % 0 % 1014 hPa 0,0 l/m 5,4 km/h (1 Bft)
04.04.2009 21:43 21,8 C 15,0 C 11,5 C 62 % 0 % 1014 hPa 0,0 l/m 4,3 km/h (1 Bft)
04.04.2009 21:46 21,8 C 14,9 C 11,3 C 63 % 0 % 1014 hPa 0,0 l/m 4,1 km/h (1 Bft)
04.04.2009 21:49 21,8 C 14,7 C 11,2 C 63 % 0 % 1014 hPa 0,0 l/m 4,0 km/h (1 Bft)
04.04.2009 21:52 21,8 C 14,6 C 11,1 C 64 % 0 % 1014 hPa 0,0 l/m 4,0 km/h (1 Bft)
04.04.2009 21:55 21,8 C 14,6 C 11,0 C 64 % 0 % 1014 hPa 0,0 l/m 4,2 km/h (1 Bft)
04.04.2009 21:58 21,8 C 14,6 C 11,4 C 64 % 0 % 1014 hPa 0,0 l/m 5,5 km/h (1 Bft)
04.04.2009 22:01 21,8 C 14,6 C 11,2 C 64 % 0 % 1014 hPa 0,0 l/m 5,5 km/h (1 Bft)
04.04.2009 22:04 21,8 C 14,6 C 11,9 C 64 % 0 % 1014 hPa 0,0 l/m 2,3 km/h (1 Bft)
04.04.2009 22:07 21,8 C 14,6 C 11,9 C 64 % 0 % 1014 hPa 0,0 l/m 4,5 km/h (1 Bft)
04.04.2009 22:10 21,8 C 14,6 C 11,6 C 64 % 0 % 1014 hPa 0,0 l/m 0,9 km/h (0 Bft)
04.04.2009 22:13 21,8 C 14,6 C 11,3 C 64 % 0 % 1014 hPa 0,0 l/m 0,7 km/h (0 Bft)
04.04.2009 22:16 21,8 C 14,7 C 10,8 C 63 % 0 % 1014 hPa 0,0 l/m 0,0 km/h (0 Bft)
04.04.2009 22:19 21,8 C 14,7 C 10,7 C 63 % 0 % 1014 hPa 0,0 l/m 0,0 km/h (0 Bft)
04.04.2009 22:22 21,8 C 14,6 C 10,3 C 63 % 0 % 1014 hPa 0,0 l/m 0,0 km/h (0 Bft)
04.04.2009 22:25 21,8 C 14,6 C 10,1 C 63 % 0 % 1014 hPa 0,0 l/m 0,0 km/h (0 Bft)
04.04.2009 22:28 21,8 C 14,4 C 10,4 C 63 % 0 % 1014 hPa 0,0 l/m 0,0 km/h (0 Bft)
04.04.2009 22:31 21,8 C 14,4 C 10,4 C 64 % 0 % 1014 hPa 0,0 l/m 0,0 km/h (0 Bft)
04.04.2009 22:34 21,8 C 14,0 C 9,8 C 64 % 0 % 1014 hPa 0,0 l/m 0,0 km/h (0 Bft)
04.04.2009 22:37 21,8 C 13,9 C 9,5 C 64 % 0 % 1014 hPa 0,0 l/m 0,0 km/h (0 Bft)
04.04.2009 22:40 21,8 C 13,7 C 9,3 C 64 % 0 % 1014 hPa 0,0 l/m 0,0 km/h (0 Bft)
04.04.2009 22:43 21,8 C 13,6 C 9,3 C 65 % 0 % 1014 hPa 0,0 l/m 0,0 km/h (0 Bft)
04.04.2009 22:46 21,8 C 13,5 C 9,2 C 65 % 0 % 1014 hPa 0,0 l/m 0,0 km/h (0 Bft)
04.04.2009 22:49 21,8 C 13,3 C 9,1 C 66 % 0 % 1014 hPa 0,0 l/m 0,0 km/h (0 Bft)
04.04.2009 22:52 21,8 C 13,2 C 8,9 C 66 % 0 % 1014 hPa 0,0 l/m 0,0 km/h (0 Bft)
04.04.2009 22:55 21,8 C 13,2 C 9,1 C 66 % 0 % 1014 hPa 0,0 l/m 0,0 km/h (0 Bft)
04.04.2009 22:58 21,8 C 13,2 C 8,9 C 66 % 0 % 1014 hPa 0,0 l/m 0,0 km/h (0 Bft)
04.04.2009 23:01 21,8 C 13,0 C 8,9 C 67 % 0 % 1014 hPa 0,0 l/m 0,0 km/h (0 Bft)
04.04.2009 23:04 21,8 C 12,9 C 8,9 C 67 % 0 % 1014 hPa 0,0 l/m 0,0 km/h (0 Bft)
04.04.2009 23:07 21,8 C 12,8 C 9,3 C 68 % 0 % 1014 hPa 0,0 l/m 0,0 km/h (0 Bft)
04.04.2009 23:10 21,8 C 12,8 C 9,8 C 68 % 0 % 1014 hPa 0,0 l/m 0,0 km/h (0 Bft)
04.04.2009 23:13 21,8 C 12,7 C 10,2 C 68 % 0 % 1014 hPa 0,0 l/m 0,0 km/h (0 Bft)
04.04.2009 23:16 21,8 C 12,7 C 10,1 C 68 % 0 % 1014 hPa 0,0 l/m 0,0 km/h (0 Bft)
04.04.2009 23:19 21,8 C 12,6 C 9,3 C 69 % 0 % 1014 hPa 0,0 l/m 0,0 km/h (0 Bft)
04.04.2009 23:22 21,8 C 12,6 C 9,2 C 69 % 0 % 1014 hPa 0,0 l/m 0,0 km/h (0 Bft)
04.04.2009 23:25 21,8 C 12,5 C 9,0 C 69 % 0 % 1014 hPa 0,0 l/m 0,0 km/h (0 Bft)
04.04.2009 23:28 21,8 C 12,5 C 9,5 C 70 % 0 % 1014 hPa 0,0 l/m 0,0 km/h (0 Bft)
04.04.2009 23:31 21,8 C 12,5 C 9,7 C 70 % 0 % 1014 hPa 0,0 l/m 0,0 km/h (0 Bft)
04.04.2009 23:34 21,8 C 12,4 C 9,3 C 70 % 0 % 1014 hPa 0,0 l/m 0,0 km/h (0 Bft)
04.04.2009 23:37 21,8 C 12,4 C 9,0 C 70 % 0 % 1014 hPa 0,0 l/m 0,0 km/h (0 Bft)
04.04.2009 23:40 21,8 C 12,4 C 9,0 C 70 % 0 % 1014 hPa 0,0 l/m 0,0 km/h (0 Bft)
04.04.2009 23:43 21,8 C 12,3 C 9,5 C 70 % 0 % 1014 hPa 0,0 l/m 0,0 km/h (0 Bft)
04.04.2009 23:46 21,8 C 12,3 C 9,7 C 70 % 0 % 1014 hPa 0,0 l/m 0,0 km/h (0 Bft)
04.04.2009 23:49 21,8 C 12,3 C 9,9 C 70 % 0 % 1014 hPa 0,0 l/m 0,0 km/h (0 Bft)
04.04.2009 23:52 21,8 C 12,2 C 9,4 C 70 % 0 % 1014 hPa 0,0 l/m 0,0 km/h (0 Bft)
04.04.2009 23:55 21,8 C 12,2 C 9,2 C 70 % 0 % 1014 hPa 0,0 l/m 0,0 km/h (0 Bft)
04.04.2009 23:58 21,8 C 12,2 C 9,5 C 70 % 0 % 1014 hPa 0,0 l/m 0,0 km/h (0 Bft)
_ Min-Zeit 09:28 07:04 06:28 16:43 - 00:00 - 00:00
Minimum _ 20,3 C 6,4 C 4,0 C 41 % - 1012 hPa - 0,0 km/h (0 Bft)
_ Max-Zeit 08:31 16:13 10:46 07:31 00:00 08:52 00:00 16:46
Maximum _ 22,4 C 20,0 C 28,6 C 85 % 0 % 1014 hPa 0,0 l/m 17,1 km/h
W-NW (3 Bft)
Durchschnitt _ 21,7 C 13,4 C 14,3 C 67 % #0 min. 1013 hPa #0,0 l/m 3,3 km/h (1 Bft)